Location: ???????
(56.2167°N, 38.0500°E)
Time: 13:36:36
(UTC+00:00)

NOSS 2-2 (E) - Pass Details

Date: 19 May 2025
Orbit: 390 x 1730 km, 63.3° (Epoch: 20 June)

Event Time Altitude Azimuth Distance (km) Brightness Sun altitude
Rises 23:28:40 0° 305° (NW) 2,493 6.7 -9.4°
Reaches altitude 10° 23:30:36 10° 298° (WNW) 1,716 5.8 -9.3°
Maximum altitude 23:34:11 44° 226° (SW) 829 3.8 -9.0°
Drops below altitude 10° 23:38:59 10° 154° (SSE) 2,291 6.2 -8.7°
Sets 23:41:55 0° 149° (SSE) 3,453 7.1 -8.5°
